| time (UTC) | temp C | wind direction | speed KPH | gust KPH | rain 1hr cm | rain 24hr cm | rain mn cm | humidity % | barometer mb |
| 20260507092211 | 15 | 337 | 0.0 | 16.1 | 0.00 | 0.00 | 0.00 | 55 | 1009.5 |
| 20260507090446 | 15 | 22 | 0.0 | 0.0 | 0.00 | 0.00 | 0.00 | 58 | 1008.6 |
| 20260507084701 | 13 | 0 | 0.0 | 0.0 | 0.00 | 0.00 | 0.00 | 59 | 1008.9 |
| 20260507082846 | 14 | 22 | 0.0 | 0.0 | 0.00 | 0.00 | 0.00 | 61 | 1008.9 |
| 20260507081226 | 13 | 22 | 0.0 | 0.0 | 0.00 | 0.00 | 0.00 | 62 | 1009.2 |
| 20260507075406 | 12 | 45 | 0.0 | 17.7 | 0.00 | 0.00 | 0.00 | 63 | 1009.5 |
| 20260507073741 | 11 | 45 | 0.0 | 0.0 | 0.00 | 0.00 | 0.00 | 64 | 1009.9 |
| 20260507071956 | 12 | 0 | 0.0 | 14.5 | 0.00 | 0.00 | 0.00 | 64 | 1009.7 |
| 20260507070146 | 10 | 45 | 0.0 | 0.0 | 0.00 | 0.00 | 0.00 | 65 | 1010.1 |
| 20260507064311 | 10 | 0 | 0.0 | 0.0 | 0.00 | 0.00 | 0.00 | 66 | 1008.8 |
| 20260507062521 | 10 | 0 | 0.0 | 0.0 | 0.00 | 0.00 | 0.00 | 66 | 1008.8 |
| 20260507060626 | 9 | 22 | 0.0 | 0.0 | 0.00 | 0.00 | 0.00 | 66 | 1009.2 |
| 20260507054906 | 8 | 337 | 0.0 | 0.0 | 0.00 | 0.00 | 0.00 | 67 | 1009.3 |
| 20260507053006 | 8 | 22 | 0.0 | 0.0 | 0.00 | 0.00 | 0.00 | 66 | 1008.6 |
| 20260507051341 | 9 | 0 | 0.0 | 0.0 | 0.00 | 0.00 | 0.00 | 65 | 1008.7 |
| 20260507045501 | 8 | 0 | 0.0 | 0.0 | 0.00 | 0.00 | 0.00 | 67 | 1007.7 |
| 20260507043741 | 7 | 45 | 0.0 | 0.0 | 0.00 | 0.00 | 0.00 | 68 | 1008.3 |
| 20260507041941 | 6 | 0 | 0.0 | 0.0 | 0.00 | 0.00 | 0.00 | 69 | 1009.1 |
| 20260507040326 | 5 | 0 | 0.0 | 0.0 | 0.00 | 0.00 | 0.00 | 69 | 1008.1 |
| 20260507034441 | 5 | 0 | 0.0 | 0.0 | 0.00 | 0.00 | 0.00 | 69 | 1008.2 |
| 20260507032611 | 5 | 0 | 0.0 | 0.0 | 0.00 | 0.00 | 0.00 | 69 | 1008.3 |
| 20260507030811 | 5 | 22 | 0.0 | 0.0 | 0.00 | 0.00 | 0.00 | 68 | 1008.8 |
| 20260507025031 | 5 | 0 | 0.0 | 0.0 | 0.00 | 0.00 | 0.00 | 68 | 1008.2 |
| 20260507023316 | 5 | 22 | 0.0 | 0.0 | 0.00 | 0.00 | 0.00 | 68 | 1007.9 |
| 20260507021451 | 6 | 45 | 0.0 | 0.0 | 0.00 | 0.00 | 0.00 | 68 | 1007.9 |
| 20260507015726 | 6 | 22 | 0.0 | 0.0 | 0.00 | 0.00 | 0.00 | 68 | 1007.4 |
| 20260507013831 | 5 | 0 | 0.0 | 0.0 | 0.00 | 0.00 | 0.00 | 68 | 1008.0 |
| 20260507012036 | 5 | 22 | 0.0 | 0.0 | 0.00 | 0.00 | 0.00 | 68 | 1006.8 |
| 20260507010351 | 5 | 0 | 0.0 | 0.0 | 0.00 | 0.00 | 0.00 | 68 | 1008.5 |
| 20260507004631 | 5 | 0 | 0.0 | 0.0 | 0.00 | 0.00 | 0.00 | 67 | 1007.6 |
| 20260507002751 | 5 | 337 | 0.0 | 0.0 | 0.00 | 0.00 | 0.00 | 67 | 1008.3 |
| 20260507000924 | 5 | 0 | 0.0 | 0.0 | 0.00 | 0.00 | 0.00 | 67 | 1007.2 |
| 20260506235146 | 5 | 0 | 0.0 | 0.0 | 0.00 | 0.00 | 0.00 | 66 | 1007.9 |
| 20260506233516 | 6 | 22 | 0.0 | 0.0 | 0.00 | 0.00 | 0.00 | 66 | 1008.5 |
| 20260506231731 | 6 | 22 | 0.0 | 0.0 | 0.00 | 0.00 | 0.00 | 66 | 1007.9 |
| 20260506225831 | 6 | 0 | 0.0 | 0.0 | 0.00 | 0.00 | 0.00 | 66 | 1008.5 |
| 20260506224131 | 6 | 22 | 0.0 | 0.0 | 0.00 | 0.00 | 0.00 | 65 | 1007.5 |
| 20260506222446 | 6 | 337 | 0.0 | 0.0 | 0.00 | 0.00 | 0.00 | 65 | 1007.0 |
| 20260506220701 | 6 | 0 | 0.0 | 19.3 | 0.00 | 0.00 | 0.00 | 64 | 1007.1 |
| 20260506214826 | 6 | 67 | 0.0 | 0.0 | 0.00 | 0.00 | 0.00 | 64 | 1005.8 |
| 20260506213200 | 6 | 0 | 0.0 | 0.0 | 0.00 | 0.00 | 0.00 | 63 | 1007.3 |
| 20260506211454 | 6 | 292 | 0.0 | 0.0 | 0.00 | 0.00 | 0.00 | 63 | 1007.7 |
| 20260506205551 | 6 | 337 | 0.0 | 24.1 | 0.00 | 0.00 | 0.00 | 62 | 1007.5 |
| 20260506203701 | 6 | 292 | 0.0 | 25.7 | 0.00 | 0.00 | 0.00 | 62 | 1007.4 |
| 20260506201916 | 6 | 0 | 0.0 | 16.1 | 0.00 | 0.00 | 0.00 | 62 | 1007.7 |
| 20260506200241 | 7 | 270 | 14.5 | 33.8 | 0.00 | 0.00 | 0.00 | 61 | 1008.7 |
| 20260506194436 | 7 | 0 | 0.0 | 0.0 | 0.00 | 0.00 | 0.00 | 61 | 1007.0 |
| 20260506192531 | 7 | 0 | 0.0 | 11.3 | 0.00 | 0.00 | 0.00 | 60 | 1006.8 |
| 20260506190926 | 7 | 315 | 17.7 | 17.7 | 0.00 | 0.00 | 0.00 | 60 | 1008.1 |
| 20260506185026 | 7 | 22 | 0.0 | 0.0 | 0.00 | 0.00 | 0.00 | 59 | 1006.9 |
| 20260506183106 | 7 | 22 | 0.0 | 0.0 | 0.00 | 0.00 | 0.00 | 59 | 1008.0 |
| 20260506181226 | 7 | 270 | 0.0 | 0.0 | 0.00 | 0.00 | 0.00 | 58 | 1007.4 |
| 20260506173600 | 8 | 337 | 0.0 | 24.1 | 0.00 | 0.00 | 0.00 | 59 | 1008.1 |
| 20260506171921 | 8 | 337 | 0.0 | 38.6 | 0.00 | 0.00 | 0.00 | 59 | 1008.1 |
| 20260506170111 | 9 | 22 | 0.0 | 27.4 | 0.00 | 0.00 | 0.00 | 59 | 1007.4 |
| 20260506164146 | 10 | 270 | 0.0 | 19.3 | 0.00 | 0.00 | 0.00 | 59 | 1008.1 |
| 20260506162336 | 10 | 315 | 0.0 | 25.7 | 0.00 | 0.00 | 0.00 | 59 | 1009.2 |
| 20260506160426 | 10 | 22 | 0.0 | 16.1 | 0.00 | 0.00 | 0.00 | 59 | 1007.2 |
| 20260506154626 | 11 | 22 | 0.0 | 0.0 | 0.00 | 0.00 | 0.00 | 59 | 1008.3 |
| 20260506152836 | 11 | 180 | 0.0 | 0.0 | 0.00 | 0.00 | 0.00 | 59 | 1007.5 |
| 20260506151056 | 11 | 157 | 0.0 | 0.0 | 0.00 | 0.00 | 0.00 | 59 | 1007.7 |
| 20260506145241 | 12 | 157 | 0.0 | 0.0 | 0.00 | 0.00 | 0.00 | 59 | 1008.1 |
| 20260506143501 | 12 | 157 | 0.0 | 8.0 | 0.00 | 0.00 | 0.00 | 59 | 1007.8 |
| 20260506141846 | 13 | 135 | 0.0 | 0.0 | 0.00 | 0.00 | 0.00 | 59 | 1007.5 |
| 20260506140118 | 12 | 135 | 0.0 | 0.0 | 0.00 | 0.00 | 0.00 | 60 | 1009.7 |
| 20260506134206 | 12 | 112 | 0.0 | 9.7 | 0.00 | 0.00 | 0.00 | 61 | 1009.5 |
| 20260506132451 | 12 | 157 | 0.0 | 12.9 | 0.00 | 0.00 | 0.00 | 61 | 1009.0 |
| 20260506130651 | 12 | 157 | 0.0 | 22.5 | 0.00 | 0.00 | 0.00 | 61 | 1008.6 |
| 20260506124816 | 13 | 135 | 19.3 | 19.3 | 0.00 | 0.00 | 0.00 | 60 | 1009.7 |
| 20260506123041 | 13 | 135 | 0.0 | 0.0 | 0.00 | 0.00 | 0.00 | 60 | 1009.5 |
| 20260506121121 | 13 | 135 | 0.0 | 29.0 | 0.00 | 0.00 | 0.00 | 61 | 1009.3 |
| 20260506115426 | 14 | 180 | 0.0 | 9.7 | 0.00 | 0.00 | 0.00 | 61 | 1010.1 |
| 20260506113656 | 12 | 67 | 0.0 | 17.7 | 0.00 | 0.00 | 0.00 | 63 | 1009.2 |
| 20260506111851 | 12 | 90 | 20.9 | 29.0 | 0.00 | 0.00 | 0.00 | 64 | 1008.7 |
| 20260506110011 | 13 | 135 | 0.0 | 32.2 | 0.00 | 0.00 | 0.00 | 62 | 1009.8 |
| 20260506104311 | 13 | 22 | 0.0 | 0.0 | 0.00 | 0.00 | 0.00 | 62 | 1009.2 |
| 20260506102526 | 13 | 67 | 0.0 | 32.2 | 0.00 | 0.00 | 0.00 | 61 | 1009.7 |
| 20260506100811 | 14 | 180 | 0.0 | 20.9 | 0.00 | 0.00 | 0.00 | 60 | 1009.4 |
| 20260506095106 | 15 | 157 | 0.0 | 0.0 | 0.00 | 0.00 | 0.00 | 60 | 1009.0 |